Weather History for Yuma MCAS, AZ

Change the Weather History Date:

Friday, April 12, 2013

  Actual Average Record
Temperature  
Mean Temperature 75 °F 72 °F  
Max Temperature 89 °F 85 °F 102 °F (1962)
Min Temperature 61 °F 59 °F 41 °F (1912)
Degree Days  
Heating Degree Days 0 1  
Month to date heating degree days 0 12  
Since 1 July heating degree days 705 685  
Cooling Degree Days 10 7  
Month to date cooling degree days 105 76  
Year to date cooling degree days 314 229  
Growing Degree Days 26 (Base 50)    
Moisture  
Dew Point 27 °F    
Average Humidity 23    
Maximum Humidity 37    
Minimum Humidity 8    
Precipitation  
Precipitation 0.00 in 0.01 in 0.16 in (1999)
Month to date precipitation T 0.09  
Year to date precipitation 1.11 1.18  
Sea Level Pressure  
Sea Level Pressure 29.72 in    
Wind  
Wind Speed 5 mph (NW)    
Max Wind Speed 12 mph    
Max Gust Speed 15 mph    
Visibility 10 miles    
Events      
T = Trace of Precipitation, MM = Missing Value Source: NWS Daily Summary

Daily Weather History Graph

Daily Weather History Graph

Search for Another Location

Airport:

Trip Planner

Search our weather history database for the weather conditions in past years. The results will help you decide how hot, cold, wet, or windy it might be!

Date:

Astronomy

Apr. 12, 2013 Rise Set
Actual Time 6:12 AM MST 7:06 PM MST
Civil Twilight 5:47 AM MST 7:31 PM MST
Nautical Twilight 5:17 AM MST 8:01 PM MST
Astronomical Twilight 4:46 AM MST 8:32 PM MST
Moon 7:31 AM MST (4/12) 9:32 PM MST (4/12)
Length of Visible Light 13h 44m
Length of Day
12h 54m
Waxing Crescent, 6% of the Moon is Illuminated
Apr 12
Waxing Crescent
Apr 18
First Quarter
Apr 25
Full
May 2
Last Quarter
May 9
New

Hourly Weather History & Observations

Time (MST) Temp. Dew Point Humidity Pressure Visibility Wind Dir Wind Speed Gust Speed Precip Events Conditions
12:55 AM 71.1 °F 21.9 °F 16% 29.69 in 10.0 mi SSE 9.2 mph - N/A   Mostly Cloudy
1:55 AM 70.0 °F 18.0 °F 14% 29.68 in 10.0 mi SE 8.1 mph - N/A   Mostly Cloudy
2:55 AM 68.0 °F 19.9 °F 16% 29.68 in 10.0 mi Calm Calm - N/A   Mostly Cloudy
3:55 AM 64.9 °F 24.1 °F 21% 29.68 in 10.0 mi NE 3.5 mph - N/A   Mostly Cloudy
4:55 AM 62.1 °F 28.0 °F 28% 29.69 in 10.0 mi NNW 3.5 mph - N/A   Mostly Cloudy
5:55 AM 63.0 °F 23.0 °F 22% 29.70 in 10.0 mi NNE 5.8 mph - N/A   Mostly Cloudy
6:55 AM 64.0 °F 21.9 °F 20% 29.72 in 10.0 mi NNE 6.9 mph - N/A   Mostly Cloudy
7:55 AM 66.9 °F 23.0 °F 19% 29.73 in 10.0 mi NE 4.6 mph - N/A   Mostly Cloudy
8:55 AM 73.9 °F 24.1 °F 16% 29.74 in 10.0 mi NE 4.6 mph - N/A   Mostly Cloudy
9:55 AM 78.1 °F 19.9 °F 11% 29.77 in 10.0 mi North 3.5 mph - N/A   Mostly Cloudy
10:55 AM 81.0 °F 18.0 °F 10% 29.78 in 10.0 mi Calm Calm - N/A   Mostly Cloudy
11:55 AM 82.9 °F 23.0 °F 11% 29.77 in 10.0 mi Calm Calm - N/A   Mostly Cloudy
12:55 PM 84.0 °F 23.0 °F 11% 29.75 in 10.0 mi Calm Calm - N/A   Scattered Clouds
1:55 PM 87.1 °F 21.9 °F 9% 29.74 in 10.0 mi West 5.8 mph - N/A   Scattered Clouds
2:55 PM 88.0 °F 21.9 °F 9% 29.72 in 10.0 mi Variable 4.6 mph - N/A   Scattered Clouds
3:55 PM 89.1 °F 21.9 °F 9% 29.71 in 10.0 mi West 9.2 mph - N/A   Partly Cloudy
4:55 PM 88.0 °F 26.1 °F 11% 29.70 in 10.0 mi West 8.1 mph - N/A   Clear
5:55 PM 86.0 °F 32.0 °F 14% 29.69 in 10.0 mi West 8.1 mph - N/A   Clear
6:55 PM 82.0 °F 37.9 °F 21% 29.70 in 10.0 mi West 6.9 mph - N/A   Clear
7:55 PM 78.1 °F 37.0 °F 23% 29.72 in 10.0 mi West 4.6 mph - N/A   Clear
8:55 PM 75.9 °F 39.0 °F 26% 29.74 in 10.0 mi Calm Calm - N/A   Clear
9:55 PM 73.0 °F 41.0 °F 31% 29.76 in 10.0 mi SSW 3.5 mph - N/A   Clear
10:55 PM 69.1 °F 42.1 °F 38% 29.76 in 10.0 mi South 6.9 mph - N/A   Clear
11:55 PM 70.0 °F 35.1 °F 28% 29.76 in 10.0 mi SSE 5.8 mph - N/A   Clear